Погода в Каменном Броде

Россия / Волгоградская область     49°49′19″N   44°28′38″E
темп.,
°C
ветер,
м/с
пор.,
м/с
влажн.,
%
обл.,
%
осадки,
мм/ч
давл.,
гПа
погр.,
м
4 июля, пн
пн400:00+15ссз33790 0.0 101241
03:00+14сз33845 0.0 101225
06:00+17сз36740 0.0 1013180
09:00+24сз565051 0.0 1012997
12:00+26сз784680 0.0 10112286
15:00+24с6854100 0.1 10111239
18:00+23с5852100 0.0 10121300
21:00+17ссв34704 0.0 101356
5 июля, вт
вт500:00+15с33680 0.0 101442
03:00+14ссз35715 0.0 101573
06:00+15с47705 0.0 1016221
09:00+21с58475 0.0 10161351
12:00+24с68413 0.0 10162232
15:00+25ссв68355 0.0 10152466
18:00+23ссв674268 0.0 10161742
21:00+18всв48623 0.0 1017152
6 июля, ср
ср600:00+14всв38655 0.0 1019178
03:00+13всв33710 0.0 101939
06:00+15всв23620 0.0 1020159
09:00+20в33430 0.0 1020964
12:00+23в33330 0.0 10201505
15:00+25в32290 0.0 10191729
18:00+25всв22310 0.0 10181658
21:00+18в33510 0.0 101940
7 июля, чт
чт700:00+17вюв22530 0.0 101916
03:00+16вюв22600 0.0 101917
06:00+19юв23570 0.0 1020118
09:00+25ююв32380 0.0 10191066
12:00+28вюв33290 0.0 10181929
15:00+29вюв23260 0.0 10182317
18:00+29в23270 0.0 10172162
21:00+21всв46470 0.0 101886
8 июля, пт
пт800:00+20в36420 0.0 101783
03:00+18в33500 0.0 101832
06:00+21в24510 0.0 1018122
09:00+27вюв33330 0.0 1018770
12:00+30в33250 0.0 10172566
15:00+31всв33230 0.0 10162923
18:00+30св56310 0.0 1015826
21:00+23всв48370 0.0 1016103